星链-31750 (STARLINK-31750 )

导读

STARLINK-31750是美国星链计划的低轨通信卫星,于2024年4月18日发射升空,属于SpaceX打造的Starlink星座组网卫星,旨在为全球提供高速低延迟宽带互联网服务。作为星链大规模部署中的一员,它进一步扩充了星座规模,提升了全球覆盖能力与服务性能,推动低轨卫星互联网的落地普及。

Basic Information
目录编号:
59552
目录名称:
STARLINK-31750
国际标识:
2024-074U
轨道中心:
EARTH
卫星名称:
星链-31750
卫星全名:
星链-31750 (STARLINK-31750 )
卫星状态:
在轨 (已飞行877 天)
发射日期:
2024-04-18 UTC
国别 :
美国 (US)
星等 :
--
This satellite is enrolled in the Space Conjunction Data Service (SCDS) and the current flight risk assessment level is: High Risk
Orbit Information
数据来源 国际轨道数据
星历时间: 2026-09-11T17:14:08+0800
16小时前
查看轨道信息
半长轴: 6861.208km
偏心率: 0.0001226
轨道倾角: 43.006°
近地点辐角 276.056°
升交点赤经 14.845°
平近点角 84.015°
近地点: 482.229km
远地点: 483.913km
周期: 94.267分钟
每日圈数: 15.275729
Detailed Information
固有亮度:
5
最大亮度:
1.5
卫星平台:
Starlink v2.0 mini
覆盖范围:
全球
运营商:
太空探索技术公司
运营商所在国:
美国
制造商(研发单位):
太空探索技术公司
制造商所在国:
美国
使用方式:
暂无
Satellite Introduction
星链(Starlink)计划是由太空探索技术公司(SpaceX)提出的一个巨型低轨卫星互联网星座项目,计划在2019年至2024年间在太空搭建由约1.2万颗卫星组成的“星链”网络,其中1584颗将部署在地球上空550千米处的近地轨道,并从2020年开始工作。该卫星仍在工作。
2D Orbit Map
3D Orbit Map
Orbit Altitude Analysis Chart
Orbit Inclination Analysis Chart
Orbit Comprehensive Analysis Chart
View Comprehensive Chart
Conjunction Data List
Event ID Objects TCA Miss Dist (km) Collision Risk Probability Collision Risk Index (CRI) Action
CDM_260913-132605-955206-401921
2026-09-13T
13:26:12+0000
1.013 km
极远距离
5.343733E-6 低风险 0.5
CDM_260913-085605-826405-955222
BRO-11 (58264)
2026-09-13T
08:56:28+0000
2.193 km
极远距离
1.543173E-6 低风险 0.39
CDM_260913-141305-955206-401921
2026-09-13T
14:13:17+0000
1.657 km
极远距离
1.148799E-6 低风险 0.36
CDM_260912-025805-955206-442021
2026-09-12T
02:58:09+0000
2.719 km
极远距离
9.19567E-7 极低风险 0.34
CDM_260913-150005-955206-401921
2026-09-13T
15:00:22+0000
2.915 km
极远距离
4.051959E-7 极低风险 0.27
Miss Distance Evolution Trend with All Objects
Collision Probability Evolution Trend with All Objects